Powrót do katalogu

FENGYUN 1C DEB

LostPO
NORAD 38114·DEBRIS·🇨🇳 China

Wystrzelony May 10, 1999 z Taiyuan Satellite Launch Center

Loading…

Następne Przeloty (najbliższe 24 godziny)

TLE

NieaktualneSource: Space-Track

Epoka: Sep 21, 2022, 11:21 UTC

1 38114U 99025EPK 22264.47317449  .00005855  00000-0  24824-2 0  9992
2 38114  97.9424 348.7889 0138701 152.9917 207.8568 14.20628273697480

Śledź FENGYUN 1C DEB w czasie rzeczywistym z AllMySat

Download on the App Store